Flag for Poland Weather past 2 weeks in Gdynia, Poland

Now
79 °F

Passing clouds.


Feels Like: 81 °F
Forecast: 63 / 73 °F
Wind: 6 mph from Southeast

Location: Gdansk-Rebiechowo

Current Time: Jul 5, 2015 at 8:06:36 PM

Latest Report: Jul 5, 2015 at 7:30 PM


Visibility: N/A

Pressure: 30.01 "Hg

Humidity: 61%

Dew point: 64 °F

Location of GdyniaLocation

Historic Weather in Gdynia — Graph

°F

Gdynia temperature yesterday

Maximum temperature yesterday: 88 °F (at 2:00 PM)
Minimum temperature yesterday: 57 °F (at 3:00 AM)
Average temperature yesterday: 74 °F

Past Weeks' High & Low Weather Summary

 TemperatureHumidityPressure
High90 °F (Jul 5, 1:00 PM)100% (Jun 20, 10:00 PM)30.42 "Hg (Jun 20, 10:00 PM)
Low46 °F (Jun 21, 4:00 AM)25% (Jul 4, 12:00 PM)29.59 "Hg (Jun 23, 3:30 AM)
Average61 °F75%30.06 "Hg
* Reported Jun 20 7:00 PM — Jul 5 7:00 PM, Gdynia, Weather by CustomWeather, © 2015

Note: Actual official high and low records may vary slightly from our data, if they occured in-between our weather recording intervals... More about our weather records

Advertising

Gdynia weather history for previous 24 hours

 ConditionsComfort  
Time TempWeatherWind HumidityBarometerVisibility
7:00 PM
Sun, Jul 5
81 °FPassing clouds.7 mph58%30.01 "HgN/A
6:30 PM81 °FPassing clouds.6 mph58%30.01 "HgN/A
6:00 PM81 °FPassing clouds.7 mph58%30.01 "HgN/A
5:30 PM82 °FPassing clouds.8 mph51%30.01 "HgN/A
5:00 PM84 °FPassing clouds.8 mph45%30.01 "HgN/A
4:30 PM84 °FPassing clouds.10 mph45%30.01 "HgN/A
4:00 PM86 °FPassing clouds.8 mph43%30.01 "HgN/A
3:30 PM86 °FPassing clouds.8 mph43%30.01 "HgN/A
3:00 PM88 °FPassing clouds.7 mph40%30.01 "HgN/A
2:30 PM88 °FPassing clouds.8 mph38%30.04 "HgN/A
2:00 PM90 °FPassing clouds.5 mph36%30.04 "HgN/A
1:30 PM90 °FSunny.5 mph36%30.04 "Hg10 mi
1:00 PM90 °FSunny.3 mph36%30.04 "Hg10 mi
12:30 PM88 °FPassing clouds.6 mph40%30.04 "HgN/A
12:00 PM88 °FPassing clouds.5 mph38%30.04 "HgN/A
11:30 AM86 °FPassing clouds.5 mph43%30.04 "HgN/A
11:00 AM86 °FPassing clouds.3 mph43%30.04 "HgN/A
10:30 AM86 °FPassing clouds.3 mph40%30.04 "HgN/A
10:00 AM84 °FSunny.2 mph43%30.07 "Hg10 mi
9:30 AM81 °FSunny.2 mph48%30.07 "Hg10 mi
9:00 AM77 °FSunny.2 mph54%30.07 "Hg10 mi
8:30 AM77 °FPassing clouds.3 mph51%30.07 "HgN/A
8:00 AM73 °FSunny.1 mph65%30.07 "Hg10 mi
7:30 AM73 °FSunny.1 mph61%30.07 "Hg10 mi
7:00 AM72 °FSunny.2 mph61%30.07 "Hg10 mi
6:30 AM68 °FSunny.2 mph78%30.09 "Hg10 mi
5:30 AM63 °FSunny.2 mph83%30.09 "Hg10 mi
5:00 AM61 °FClear.2 mph88%30.09 "Hg10 mi
4:30 AM61 °FClear.2 mph88%30.09 "Hg10 mi
4:00 AM63 °FClear.1 mph83%30.09 "Hg10 mi
3:30 AM63 °FClear.No wind83%30.09 "Hg10 mi
3:00 AM63 °FClear.2 mph83%30.09 "Hg10 mi
2:30 AM63 °FClear.1 mph83%30.09 "Hg10 mi
2:00 AM64 °FClear.1 mph78%30.09 "Hg10 mi
1:30 AM66 °FClear.1 mph73%30.09 "Hg10 mi
1:00 AM66 °FClear.No wind78%30.09 "Hg10 mi
12:30 AM66 °FClear.1 mph73%30.12 "Hg10 mi
12:00 AM68 °FClear.1 mph73%30.12 "Hg10 mi
11:30 PM
Sat, Jul 4
70 °FClear.1 mph64%30.12 "Hg10 mi
11:00 PM70 °FClear.No wind64%30.12 "Hg10 mi
10:30 PM72 °FPassing clouds.3 mph57%30.12 "HgN/A
10:00 PM72 °FSunny.6 mph61%30.12 "Hg10 mi
9:30 PM73 °FSunny.5 mph57%30.12 "Hg10 mi
9:00 PM77 °FSunny.1 mph51%30.12 "Hg10 mi
8:30 PM79 °FSunny.3 mph48%30.12 "Hg10 mi
8:00 PM79 °FSunny.6 mph45%30.12 "Hg10 mi
Weather by CustomWeather, © 2015

See weather overviewHow to use our weather pages